Hlavní strana
METAR-TAF:

METAR-TAF

Letiště :

Wilkes County Airport

North Wilkesboro, Severní Karolína, Spojené státy americké

zeměpisná šířka: 36-13N, zeměpisná délka: 081-05W, výška: 396 m

Aktuální stav počasí

Zpráva byla vytvořena před 27 minutami, v 13:55 UTC
Bezvětří
Teplota 6°C
Vlhkost vzduchu 70%
Tlak 1028 hPa
Viditelnost: 16.1 km
Zataženo ve výšce 2000 ft

METAR: KUKF 251355Z AUTO 00000KT 10SM OVC020 06/01 A3037 RMK AO2

Čas: 09:22 (14:22 UTC)


TAF: chybějící

Stav a předpovědi počasí z více než 4 000 letišť (zprávy METAR a TAF).

Červené a žluté tečky na mapě představují dostupné meteorologické stanice.

Když kurzor umístíte na tečku, zobrazí se název stanice.

Pak kliknutím zobrazíte stav a předpověď počasí.

Chcete-li změnit mapu, kliknutím na zelené tlačítko se znaménkem +mapu přiblížíte, kliknutím na zelené tlačítko se znaménkem – mapu oddálíte a kliknutím na zelené šipky přejdete na sousední mapy.


METAR-TAF: